Year,Month,Day,Hour,Minute,Value (Times are PST for windgust in km/hr)
2017,05,22,00,00,3.20
2017,05,22,00,01,3.20
2017,05,22,00,02,3.20
2017,05,22,00,03,3.20
2017,05,22,00,04,3.20
2017,05,22,00,05,3.20
2017,05,22,00,06,3.20
2017,05,22,00,07,3.20
2017,05,22,00,08,3.20
2017,05,22,00,09,1.60
2017,05,22,00,10,1.60
2017,05,22,00,17,1.60
2017,05,22,00,18,1.60
2017,05,22,00,19,1.60
2017,05,22,00,20,1.60
2017,05,22,00,21,1.60
2017,05,22,00,22,1.60
2017,05,22,00,23,1.60
2017,05,22,00,24,1.60
2017,05,22,00,27,1.60
2017,05,22,00,28,1.60
2017,05,22,00,33,1.60
2017,05,22,00,35,1.60
2017,05,22,00,43,1.60
2017,05,22,00,46,1.60
2017,05,22,00,47,1.60
2017,05,22,00,55,1.60
2017,05,22,00,56,1.60
2017,05,22,00,59,1.60
2017,05,22,01,00,1.60
2017,05,22,01,01,1.60
2017,05,22,01,02,1.60
2017,05,22,01,03,1.60
2017,05,22,01,04,1.60
2017,05,22,01,12,1.60
2017,05,22,01,31,1.60
2017,05,22,01,32,1.60
2017,05,22,02,17,1.60
2017,05,22,02,18,1.60
2017,05,22,02,20,1.60
2017,05,22,02,21,3.20
2017,05,22,02,25,3.20
2017,05,22,02,26,1.60
2017,05,22,02,28,3.20
2017,05,22,02,29,4.80
2017,05,22,02,31,1.60
2017,05,22,02,32,3.20
2017,05,22,02,33,3.20
2017,05,22,02,34,1.60
2017,05,22,02,36,3.20
2017,05,22,02,37,1.60
2017,05,22,02,45,1.60
2017,05,22,02,46,1.60
2017,05,22,02,47,3.20
2017,05,22,02,48,3.20
2017,05,22,02,49,1.60
2017,05,22,02,53,1.60
2017,05,22,02,56,3.20
2017,05,22,02,57,1.60
2017,05,22,02,59,1.60
2017,05,22,03,01,1.60
2017,05,22,03,06,3.20
2017,05,22,03,07,3.20
2017,05,22,03,09,1.60
2017,05,22,03,14,1.60
2017,05,22,03,15,1.60
2017,05,22,03,16,1.60
2017,05,22,03,17,1.60
2017,05,22,03,18,1.60
2017,05,22,03,19,1.60
2017,05,22,03,20,1.60
2017,05,22,03,21,1.60
2017,05,22,03,22,1.60
2017,05,22,03,23,1.60
2017,05,22,03,24,3.20
2017,05,22,03,25,3.20
2017,05,22,03,26,3.20
2017,05,22,03,27,3.20
2017,05,22,03,28,3.20
2017,05,22,03,29,3.20
2017,05,22,03,30,3.20
2017,05,22,03,31,1.60
2017,05,22,03,32,3.20
2017,05,22,03,33,3.20
2017,05,22,03,34,3.20
2017,05,22,03,35,3.20
2017,05,22,03,36,1.60
2017,05,22,03,37,1.60
2017,05,22,03,39,1.60
2017,05,22,03,58,3.20
2017,05,22,03,59,3.20
2017,05,22,04,00,4.80
2017,05,22,04,01,6.40
2017,05,22,04,02,8.10
2017,05,22,04,03,4.80
2017,05,22,04,04,4.80
2017,05,22,04,05,3.20
2017,05,22,04,06,3.20
2017,05,22,04,07,4.80
2017,05,22,04,08,3.20
2017,05,22,04,09,3.20
2017,05,22,04,10,3.20
2017,05,22,04,11,3.20
2017,05,22,04,13,1.60
2017,05,22,04,46,1.60
2017,05,22,04,47,3.20
2017,05,22,04,48,3.20
2017,05,22,04,49,4.80
2017,05,22,04,50,4.80
2017,05,22,04,51,4.80
2017,05,22,04,52,4.80
2017,05,22,04,53,6.40
2017,05,22,04,54,4.80
2017,05,22,04,55,4.80
2017,05,22,04,56,4.80
2017,05,22,04,57,4.80
2017,05,22,04,58,4.80
2017,05,22,04,59,4.80
2017,05,22,05,00,4.80
2017,05,22,05,01,4.80
2017,05,22,05,02,3.20
2017,05,22,05,03,3.20
2017,05,22,05,04,3.20
2017,05,22,05,05,3.20
2017,05,22,05,06,3.20
2017,05,22,05,07,4.80
2017,05,22,05,08,4.80
2017,05,22,05,09,4.80
2017,05,22,05,10,3.20
2017,05,22,05,11,3.20
2017,05,22,05,12,3.20
2017,05,22,05,13,4.80
2017,05,22,05,14,3.20
2017,05,22,05,15,4.80
2017,05,22,05,16,4.80
2017,05,22,05,17,3.20
2017,05,22,05,18,3.20
2017,05,22,05,19,3.20
2017,05,22,05,20,3.20
2017,05,22,05,21,3.20
2017,05,22,05,22,3.20
2017,05,22,05,23,3.20
2017,05,22,05,24,4.80
2017,05,22,05,25,4.80
2017,05,22,05,26,4.80
2017,05,22,05,27,4.80
2017,05,22,05,28,4.80
2017,05,22,05,29,4.80
2017,05,22,05,30,4.80
2017,05,22,05,31,4.80
2017,05,22,05,32,4.80
2017,05,22,05,33,4.80
2017,05,22,05,34,4.80
2017,05,22,05,35,4.80
2017,05,22,05,36,4.80
2017,05,22,05,37,4.80
2017,05,22,05,38,3.20
2017,05,22,05,39,4.80
2017,05,22,05,40,4.80
2017,05,22,05,41,4.80
2017,05,22,05,42,4.80
2017,05,22,05,43,4.80
2017,05,22,05,44,4.80
2017,05,22,05,45,3.20
2017,05,22,05,46,3.20
2017,05,22,05,47,3.20
2017,05,22,05,48,4.80
2017,05,22,05,49,4.80
2017,05,22,05,50,4.80
2017,05,22,05,51,3.20
2017,05,22,05,52,4.80
2017,05,22,05,53,6.40
2017,05,22,05,54,3.20
2017,05,22,05,55,3.20
2017,05,22,05,56,3.20
2017,05,22,05,57,3.20
2017,05,22,05,58,3.20
2017,05,22,05,59,4.80
2017,05,22,06,00,8.10
2017,05,22,06,01,1.60
2017,05,22,06,02,4.80
2017,05,22,06,03,4.80
2017,05,22,06,04,6.40
2017,05,22,06,05,8.10
2017,05,22,06,06,8.10
2017,05,22,06,07,9.60
2017,05,22,06,08,6.40
2017,05,22,06,09,8.10
2017,05,22,06,10,4.80
2017,05,22,06,11,8.10
2017,05,22,06,12,6.40
2017,05,22,06,13,6.40
2017,05,22,06,14,8.10
2017,05,22,06,15,9.60
2017,05,22,06,16,8.10
2017,05,22,06,17,8.10
2017,05,22,06,18,4.80
2017,05,22,06,19,6.40
2017,05,22,06,20,4.80
2017,05,22,06,21,8.10
2017,05,22,06,22,8.10
2017,05,22,06,23,9.60
2017,05,22,06,24,6.40
2017,05,22,06,25,3.20
2017,05,22,06,26,6.40
2017,05,22,06,27,6.40
2017,05,22,06,28,3.20
2017,05,22,06,29,4.80
2017,05,22,06,30,6.40
2017,05,22,06,31,4.80
2017,05,22,06,32,4.80
2017,05,22,06,33,4.80
2017,05,22,06,34,4.80
2017,05,22,06,35,6.40
2017,05,22,06,36,6.40
2017,05,22,06,37,4.80
2017,05,22,06,38,4.80
2017,05,22,06,39,4.80
2017,05,22,06,40,4.80
2017,05,22,06,41,3.20
2017,05,22,06,42,4.80
2017,05,22,06,43,8.10
2017,05,22,06,44,4.80
2017,05,22,06,45,4.80
2017,05,22,06,46,3.20
2017,05,22,06,47,1.60
2017,05,22,06,48,4.80
2017,05,22,06,49,6.40
2017,05,22,06,50,3.20
2017,05,22,06,51,3.20
2017,05,22,06,52,3.20
2017,05,22,06,53,4.80
2017,05,22,06,54,3.20
2017,05,22,06,55,3.20
2017,05,22,06,56,1.60
2017,05,22,06,57,3.20
2017,05,22,06,58,4.80
2017,05,22,06,59,3.20
2017,05,22,07,00,1.60
2017,05,22,07,01,4.80
2017,05,22,07,02,1.60
2017,05,22,07,03,4.80
2017,05,22,07,04,3.20
2017,05,22,07,05,3.20
2017,05,22,07,06,1.60
2017,05,22,07,07,1.60
2017,05,22,07,08,4.80
2017,05,22,07,09,3.20
2017,05,22,07,10,4.80
2017,05,22,07,11,4.80
2017,05,22,07,12,4.80
2017,05,22,07,14,3.20
2017,05,22,07,15,3.20
2017,05,22,07,16,3.20
2017,05,22,07,17,6.40
2017,05,22,07,18,4.80
2017,05,22,07,19,3.20
2017,05,22,07,20,1.60
2017,05,22,07,21,4.80
2017,05,22,07,22,6.40
2017,05,22,07,23,8.10
2017,05,22,07,24,4.80
2017,05,22,07,25,6.40
2017,05,22,07,26,6.40
2017,05,22,07,27,3.20
2017,05,22,07,28,6.40
2017,05,22,07,29,8.10
2017,05,22,07,30,8.10
2017,05,22,07,31,4.80
2017,05,22,07,32,4.80
2017,05,22,07,33,4.80
2017,05,22,07,34,4.80
2017,05,22,07,35,8.10
2017,05,22,07,36,6.40
2017,05,22,07,37,6.40
2017,05,22,07,38,6.40
2017,05,22,07,39,6.40
2017,05,22,07,40,4.80
2017,05,22,07,41,3.20
2017,05,22,07,42,3.20
2017,05,22,07,43,1.60
2017,05,22,07,44,3.20
2017,05,22,07,45,3.20
2017,05,22,07,46,3.20
2017,05,22,07,47,4.80
2017,05,22,07,48,9.60
2017,05,22,07,49,8.10
2017,05,22,07,50,8.10
2017,05,22,07,51,6.40
2017,05,22,07,52,6.40
2017,05,22,07,53,8.10
2017,05,22,07,54,8.10
2017,05,22,07,55,6.40
2017,05,22,07,56,4.80
2017,05,22,07,57,6.40
2017,05,22,07,58,8.10
2017,05,22,07,59,6.40
2017,05,22,08,00,4.80
2017,05,22,08,01,6.40
2017,05,22,08,02,3.20
2017,05,22,08,03,4.80
2017,05,22,08,04,4.80
2017,05,22,08,05,14.50
2017,05,22,08,06,11.30
2017,05,22,08,07,6.40
2017,05,22,08,08,9.60
2017,05,22,08,09,11.30
2017,05,22,08,10,11.30
2017,05,22,08,11,11.30
2017,05,22,08,12,9.60
2017,05,22,08,13,11.30
2017,05,22,08,14,16.10
2017,05,22,08,15,14.50
2017,05,22,08,16,12.90
2017,05,22,08,17,9.60
2017,05,22,08,18,12.90
2017,05,22,08,19,14.50
2017,05,22,08,20,17.70
2017,05,22,08,21,14.50
2017,05,22,08,22,16.10
2017,05,22,08,23,8.10
2017,05,22,08,24,17.70
2017,05,22,08,25,19.30
2017,05,22,08,26,17.70
2017,05,22,08,27,9.60
2017,05,22,08,28,12.90
2017,05,22,08,29,9.60
2017,05,22,08,30,12.90
2017,05,22,08,31,6.40
2017,05,22,08,32,16.10
2017,05,22,08,33,14.50
2017,05,22,08,34,9.60
2017,05,22,08,35,17.70
2017,05,22,08,36,8.10
2017,05,22,08,37,9.60
2017,05,22,08,38,8.10
2017,05,22,08,39,14.50
2017,05,22,08,40,14.50
2017,05,22,08,41,8.10
2017,05,22,08,42,14.50
2017,05,22,08,43,14.50
2017,05,22,08,44,17.70
2017,05,22,08,45,8.10
2017,05,22,08,46,17.70
2017,05,22,08,47,20.90
2017,05,22,08,48,17.70
2017,05,22,08,49,16.10
2017,05,22,08,50,20.90
2017,05,22,08,51,11.30
2017,05,22,08,52,14.50
2017,05,22,08,53,16.10
2017,05,22,08,54,8.10
2017,05,22,08,55,11.30
2017,05,22,08,56,8.10
2017,05,22,08,57,14.50
2017,05,22,08,58,9.60
2017,05,22,08,59,14.50
2017,05,22,09,00,14.50
2017,05,22,09,01,9.60
2017,05,22,09,02,8.10
2017,05,22,09,03,20.90
2017,05,22,09,04,11.30
2017,05,22,09,05,9.60
2017,05,22,09,06,11.30
2017,05,22,09,07,20.90
2017,05,22,09,08,20.90
2017,05,22,09,09,17.70
2017,05,22,09,10,16.10
2017,05,22,09,11,16.10
2017,05,22,09,12,14.50
2017,05,22,09,13,11.30
2017,05,22,09,14,19.30
2017,05,22,09,15,20.90
2017,05,22,09,16,19.30
2017,05,22,09,17,17.70
2017,05,22,09,18,19.30
2017,05,22,09,19,19.30
2017,05,22,09,20,14.50
2017,05,22,09,21,20.90
2017,05,22,09,22,14.50
2017,05,22,09,23,14.50
2017,05,22,09,24,17.70
2017,05,22,09,25,11.30
2017,05,22,09,26,9.60
2017,05,22,09,27,17.70
2017,05,22,09,28,16.10
2017,05,22,09,29,12.90
2017,05,22,09,30,12.90
2017,05,22,09,31,17.70
2017,05,22,09,32,17.70
2017,05,22,09,33,12.90
2017,05,22,09,34,9.60
2017,05,22,09,35,8.10
2017,05,22,09,36,6.40
2017,05,22,09,37,8.10
2017,05,22,09,38,4.80
2017,05,22,09,39,6.40
2017,05,22,09,40,6.40
2017,05,22,09,41,6.40
2017,05,22,09,42,11.30
2017,05,22,09,43,8.10
2017,05,22,09,44,8.10
2017,05,22,09,45,6.40
2017,05,22,09,46,6.40
2017,05,22,09,47,9.60
2017,05,22,09,48,9.60
2017,05,22,09,49,6.40
2017,05,22,09,50,8.10
2017,05,22,09,51,8.10
2017,05,22,09,52,8.10
2017,05,22,09,53,8.10
2017,05,22,09,54,6.40
2017,05,22,09,55,6.40
2017,05,22,09,56,6.40
2017,05,22,09,57,6.40
2017,05,22,09,58,6.40
2017,05,22,09,59,8.10
2017,05,22,10,00,8.10
2017,05,22,10,01,6.40
2017,05,22,10,02,4.80
2017,05,22,10,03,8.10
2017,05,22,10,04,6.40
2017,05,22,10,05,9.60
2017,05,22,10,06,6.40
2017,05,22,10,07,9.60
2017,05,22,10,08,6.40
2017,05,22,10,09,6.40
2017,05,22,10,10,8.10
2017,05,22,10,11,8.10
2017,05,22,10,12,4.80
2017,05,22,10,13,6.40
2017,05,22,10,14,4.80
2017,05,22,10,15,4.80
2017,05,22,10,16,3.20
2017,05,22,10,17,3.20
2017,05,22,10,18,3.20
2017,05,22,10,19,4.80
2017,05,22,10,20,3.20
2017,05,22,10,21,3.20
2017,05,22,10,22,6.40
2017,05,22,10,23,6.40
2017,05,22,10,24,8.10
2017,05,22,10,25,4.80
2017,05,22,10,26,6.40
2017,05,22,10,27,8.10
2017,05,22,10,28,8.10
2017,05,22,10,29,9.60
2017,05,22,10,30,9.60
2017,05,22,10,31,8.10
2017,05,22,10,32,8.10
2017,05,22,10,33,8.10
2017,05,22,10,34,9.60
2017,05,22,10,35,6.40
2017,05,22,10,36,3.20
2017,05,22,10,37,9.60
2017,05,22,10,38,6.40
2017,05,22,10,39,4.80
2017,05,22,10,40,4.80
2017,05,22,10,41,6.40
2017,05,22,10,42,8.10
2017,05,22,10,43,8.10
2017,05,22,10,44,8.10
2017,05,22,10,45,4.80
2017,05,22,10,46,4.80
2017,05,22,10,47,6.40
2017,05,22,10,48,6.40
2017,05,22,10,49,8.10
2017,05,22,10,50,8.10
2017,05,22,10,51,8.10
2017,05,22,10,52,6.40
2017,05,22,10,53,6.40
2017,05,22,10,54,9.60
2017,05,22,10,55,8.10
2017,05,22,10,56,6.40
2017,05,22,10,57,6.40
2017,05,22,10,58,4.80
2017,05,22,10,59,4.80
2017,05,22,11,00,6.40
2017,05,22,11,01,6.40
2017,05,22,11,02,6.40
2017,05,22,11,03,6.40
2017,05,22,11,04,4.80
2017,05,22,11,05,6.40
2017,05,22,11,06,8.10
2017,05,22,11,07,6.40
2017,05,22,11,08,8.10
2017,05,22,11,09,6.40
2017,05,22,11,10,8.10
2017,05,22,11,11,6.40
2017,05,22,11,12,6.40
2017,05,22,11,13,6.40
2017,05,22,11,14,6.40
2017,05,22,11,15,6.40
2017,05,22,11,16,4.80
2017,05,22,11,17,6.40
2017,05,22,11,18,9.60
2017,05,22,11,19,6.40
2017,05,22,11,20,4.80
2017,05,22,11,21,4.80
2017,05,22,11,22,4.80
2017,05,22,11,23,4.80
2017,05,22,11,24,8.10
2017,05,22,11,25,8.10
2017,05,22,11,26,3.20
2017,05,22,11,27,6.40
2017,05,22,11,28,4.80
2017,05,22,11,29,8.10
2017,05,22,11,30,3.20
2017,05,22,11,31,4.80
2017,05,22,11,32,4.80
2017,05,22,11,33,4.80
2017,05,22,11,34,9.60
2017,05,22,11,35,4.80
2017,05,22,11,36,8.10
2017,05,22,11,37,6.40
2017,05,22,11,38,8.10
2017,05,22,11,39,6.40
2017,05,22,11,40,6.40
2017,05,22,11,41,8.10
2017,05,22,11,42,9.60
2017,05,22,11,43,8.10
2017,05,22,11,44,8.10
2017,05,22,11,45,9.60
2017,05,22,11,46,11.30
2017,05,22,11,47,8.10
2017,05,22,11,48,6.40
2017,05,22,11,49,6.40
2017,05,22,11,50,8.10
2017,05,22,11,51,8.10
2017,05,22,11,52,9.60
2017,05,22,11,53,9.60
2017,05,22,11,54,11.30
2017,05,22,11,55,8.10
2017,05,22,11,56,6.40
2017,05,22,11,57,11.30
2017,05,22,11,58,11.30
2017,05,22,11,59,6.40
2017,05,22,12,00,8.10
2017,05,22,12,01,11.30
2017,05,22,12,02,9.60
2017,05,22,12,03,9.60
2017,05,22,12,04,11.30
2017,05,22,12,05,9.60
2017,05,22,12,06,8.10
2017,05,22,12,07,9.60
2017,05,22,12,08,9.60
2017,05,22,12,09,11.30
2017,05,22,12,10,6.40
2017,05,22,12,11,6.40
2017,05,22,12,12,8.10
2017,05,22,12,13,11.30
2017,05,22,12,14,8.10
2017,05,22,12,15,8.10
2017,05,22,12,16,8.10
2017,05,22,12,17,4.80
2017,05,22,12,18,8.10
2017,05,22,12,19,11.30
2017,05,22,12,20,8.10
2017,05,22,12,21,9.60
2017,05,22,12,22,9.60
2017,05,22,12,23,6.40
2017,05,22,12,24,14.50
2017,05,22,12,25,11.30
2017,05,22,12,26,11.30
2017,05,22,12,27,12.90
2017,05,22,12,28,11.30
2017,05,22,12,29,9.60
2017,05,22,12,30,11.30
2017,05,22,12,31,9.60
2017,05,22,12,32,11.30
2017,05,22,12,33,9.60
2017,05,22,12,34,8.10
2017,05,22,12,35,6.40
2017,05,22,12,36,9.60
2017,05,22,12,37,9.60
2017,05,22,12,38,8.10
2017,05,22,12,39,9.60
2017,05,22,12,40,8.10
2017,05,22,12,41,8.10
2017,05,22,12,42,6.40
2017,05,22,12,43,14.50
2017,05,22,12,44,9.60
2017,05,22,12,45,9.60
2017,05,22,12,46,14.50
2017,05,22,12,47,12.90
2017,05,22,12,48,12.90
2017,05,22,12,49,8.10
2017,05,22,12,50,8.10
2017,05,22,12,51,8.10
2017,05,22,12,52,6.40
2017,05,22,12,53,6.40
2017,05,22,12,54,9.60
2017,05,22,12,55,9.60
2017,05,22,12,56,4.80
2017,05,22,12,57,4.80
2017,05,22,12,58,6.40
2017,05,22,12,59,3.20
2017,05,22,13,00,11.30
2017,05,22,13,01,9.60
2017,05,22,13,02,12.90
2017,05,22,13,03,11.30
2017,05,22,13,04,9.60
2017,05,22,13,05,11.30
2017,05,22,13,06,11.30
2017,05,22,13,07,16.10
2017,05,22,13,08,11.30
2017,05,22,13,09,14.50
2017,05,22,13,10,8.10
2017,05,22,13,11,11.30
2017,05,22,13,12,9.60
2017,05,22,13,13,11.30
2017,05,22,13,14,11.30
2017,05,22,13,15,11.30
2017,05,22,13,16,14.50
2017,05,22,13,17,14.50
2017,05,22,13,18,11.30
2017,05,22,13,19,11.30
2017,05,22,13,20,11.30
2017,05,22,13,21,12.90
2017,05,22,13,22,9.60
2017,05,22,13,23,9.60
2017,05,22,13,24,11.30
2017,05,22,13,25,14.50
2017,05,22,13,26,11.30
2017,05,22,13,27,14.50
2017,05,22,13,28,16.10
2017,05,22,13,29,11.30
2017,05,22,13,30,11.30
2017,05,22,13,31,9.60
2017,05,22,13,32,8.10
2017,05,22,13,33,6.40
2017,05,22,13,34,9.60
2017,05,22,13,35,14.50
2017,05,22,13,36,11.30
2017,05,22,13,37,8.10
2017,05,22,13,38,9.60
2017,05,22,13,39,11.30
2017,05,22,13,40,8.10
2017,05,22,13,41,9.60
2017,05,22,13,42,9.60
2017,05,22,13,43,11.30
2017,05,22,13,44,8.10
2017,05,22,13,45,8.10
2017,05,22,13,46,6.40
2017,05,22,13,47,9.60
2017,05,22,13,48,11.30
2017,05,22,13,49,16.10
2017,05,22,13,50,9.60
2017,05,22,13,51,17.70
2017,05,22,13,52,11.30
2017,05,22,13,53,9.60
2017,05,22,13,54,8.10
2017,05,22,13,55,8.10
2017,05,22,13,56,17.70
2017,05,22,13,57,16.10
2017,05,22,13,58,16.10
2017,05,22,13,59,17.70
2017,05,22,14,00,16.10
2017,05,22,14,01,9.60
2017,05,22,14,02,17.70
2017,05,22,14,03,14.50
2017,05,22,14,04,12.90
2017,05,22,14,05,11.30
2017,05,22,14,06,12.90
2017,05,22,14,07,14.50
2017,05,22,14,08,16.10
2017,05,22,14,09,16.10
2017,05,22,14,10,9.60
2017,05,22,14,11,8.10
2017,05,22,14,12,12.90
2017,05,22,14,13,11.30
2017,05,22,14,14,12.90
2017,05,22,14,15,8.10
2017,05,22,14,16,4.80
2017,05,22,14,17,3.20
2017,05,22,14,18,11.30
2017,05,22,14,19,14.50
2017,05,22,14,20,14.50
2017,05,22,14,21,9.60
2017,05,22,14,22,4.80
2017,05,22,14,23,9.60
2017,05,22,14,24,9.60
2017,05,22,14,25,11.30
2017,05,22,14,26,6.40
2017,05,22,14,27,9.60
2017,05,22,14,28,6.40
2017,05,22,14,29,8.10
2017,05,22,14,30,9.60
2017,05,22,14,31,11.30
2017,05,22,14,32,11.30
2017,05,22,14,33,9.60
2017,05,22,14,34,9.60
2017,05,22,14,35,12.90
2017,05,22,14,36,9.60
2017,05,22,14,37,8.10
2017,05,22,14,38,8.10
2017,05,22,14,39,11.30
2017,05,22,14,40,8.10
2017,05,22,14,41,9.60
2017,05,22,14,42,11.30
2017,05,22,14,43,8.10
2017,05,22,14,44,6.40
2017,05,22,14,45,8.10
2017,05,22,14,46,9.60
2017,05,22,14,47,9.60
2017,05,22,14,48,9.60
2017,05,22,14,49,9.60
2017,05,22,14,50,8.10
2017,05,22,14,51,11.30
2017,05,22,14,52,11.30
2017,05,22,14,53,11.30
2017,05,22,14,54,8.10
2017,05,22,14,55,9.60
2017,05,22,14,56,9.60
2017,05,22,14,57,11.30
2017,05,22,14,58,9.60
2017,05,22,14,59,8.10
2017,05,22,15,00,8.10
2017,05,22,15,01,9.60
2017,05,22,15,02,8.10
2017,05,22,15,03,11.30
2017,05,22,15,04,9.60
2017,05,22,15,05,9.60
2017,05,22,15,06,11.30
2017,05,22,15,07,8.10
2017,05,22,15,08,8.10
2017,05,22,15,09,8.10
2017,05,22,15,10,11.30
2017,05,22,15,11,9.60
2017,05,22,15,12,9.60
2017,05,22,15,13,11.30
2017,05,22,15,14,11.30
2017,05,22,15,15,11.30
2017,05,22,15,16,11.30
2017,05,22,15,17,8.10
2017,05,22,15,18,9.60
2017,05,22,15,19,9.60
2017,05,22,15,20,8.10
2017,05,22,15,21,6.40
2017,05,22,15,22,8.10
2017,05,22,15,23,8.10
2017,05,22,15,24,11.30
2017,05,22,15,25,9.60
2017,05,22,15,26,8.10
2017,05,22,15,27,9.60
2017,05,22,15,28,9.60
2017,05,22,15,29,9.60
2017,05,22,15,30,9.60
2017,05,22,15,31,9.60
2017,05,22,15,32,8.10
2017,05,22,15,33,11.30
2017,05,22,15,34,9.60
2017,05,22,15,35,8.10
2017,05,22,15,36,8.10
2017,05,22,15,37,6.40
2017,05,22,15,38,9.60
2017,05,22,15,39,9.60
2017,05,22,15,40,9.60
2017,05,22,15,41,9.60
2017,05,22,15,42,6.40
2017,05,22,15,43,8.10
2017,05,22,15,44,9.60
2017,05,22,15,45,9.60
2017,05,22,15,46,11.30
2017,05,22,15,47,9.60
2017,05,22,15,48,9.60
2017,05,22,15,49,9.60
2017,05,22,15,50,9.60
2017,05,22,15,51,8.10
2017,05,22,15,52,9.60
2017,05,22,15,53,8.10
2017,05,22,15,54,6.40
2017,05,22,15,55,8.10
2017,05,22,15,56,8.10
2017,05,22,15,57,8.10
2017,05,22,15,58,8.10
2017,05,22,15,59,11.30
2017,05,22,16,00,11.30
2017,05,22,16,01,11.30
2017,05,22,16,02,8.10
2017,05,22,16,03,8.10
2017,05,22,16,04,8.10
2017,05,22,16,05,4.80
2017,05,22,16,06,9.60
2017,05,22,16,07,9.60
2017,05,22,16,08,8.10
2017,05,22,16,09,9.60
2017,05,22,16,10,9.60
2017,05,22,16,11,9.60
2017,05,22,16,12,6.40
2017,05,22,16,13,8.10
2017,05,22,16,14,8.10
2017,05,22,16,15,9.60
2017,05,22,16,16,4.80
2017,05,22,16,17,6.40
2017,05,22,16,18,6.40
2017,05,22,16,19,4.80
2017,05,22,16,20,9.60
2017,05,22,16,21,6.40
2017,05,22,16,22,9.60
2017,05,22,16,23,9.60
2017,05,22,16,24,4.80
2017,05,22,16,25,6.40
2017,05,22,16,26,8.10
2017,05,22,16,27,8.10
2017,05,22,16,28,9.60
2017,05,22,16,29,3.20
2017,05,22,16,30,8.10
2017,05,22,16,31,9.60
2017,05,22,16,32,9.60
2017,05,22,16,33,9.60
2017,05,22,16,34,6.40
2017,05,22,16,35,9.60
2017,05,22,16,36,9.60
2017,05,22,16,37,8.10
2017,05,22,16,38,6.40
2017,05,22,16,39,8.10
2017,05,22,16,40,9.60
2017,05,22,16,41,8.10
2017,05,22,16,42,6.40
2017,05,22,16,43,6.40
2017,05,22,16,44,6.40
2017,05,22,16,45,6.40
2017,05,22,16,46,8.10
2017,05,22,16,47,9.60
2017,05,22,16,48,9.60
2017,05,22,16,49,9.60
2017,05,22,16,50,8.10
2017,05,22,16,51,9.60
2017,05,22,16,52,8.10
2017,05,22,16,53,6.40
2017,05,22,16,54,8.10
2017,05,22,16,55,9.60
2017,05,22,16,56,8.10
2017,05,22,16,57,6.40
2017,05,22,16,58,4.80
2017,05,22,16,59,8.10
2017,05,22,17,00,9.60
2017,05,22,17,01,8.10
2017,05,22,17,02,8.10
2017,05,22,17,03,9.60
2017,05,22,17,04,9.60
2017,05,22,17,05,8.10
2017,05,22,17,06,8.10
2017,05,22,17,07,4.80
2017,05,22,17,08,6.40
2017,05,22,17,09,6.40
2017,05,22,17,10,6.40
2017,05,22,17,11,6.40
2017,05,22,17,12,4.80
2017,05,22,17,13,4.80
2017,05,22,17,14,6.40
2017,05,22,17,15,6.40
2017,05,22,17,16,4.80
2017,05,22,17,17,6.40
2017,05,22,17,18,4.80
2017,05,22,17,19,4.80
2017,05,22,17,20,4.80
2017,05,22,17,21,6.40
2017,05,22,17,22,6.40
2017,05,22,17,23,6.40
2017,05,22,17,24,6.40
2017,05,22,17,25,6.40
2017,05,22,17,26,6.40
2017,05,22,17,27,6.40
2017,05,22,17,28,8.10
2017,05,22,17,29,6.40
2017,05,22,17,30,8.10
2017,05,22,17,31,8.10
2017,05,22,17,32,6.40
2017,05,22,17,33,9.60
2017,05,22,17,34,6.40
2017,05,22,17,35,8.10
2017,05,22,17,36,8.10
2017,05,22,17,37,8.10
2017,05,22,17,38,6.40
2017,05,22,17,39,6.40
2017,05,22,17,40,4.80
2017,05,22,17,41,8.10
2017,05,22,17,42,4.80
2017,05,22,17,43,8.10
2017,05,22,17,44,6.40
2017,05,22,17,45,6.40
2017,05,22,17,46,6.40
2017,05,22,17,47,6.40
2017,05,22,17,48,6.40
2017,05,22,17,49,6.40
2017,05,22,17,50,6.40
2017,05,22,17,51,8.10
2017,05,22,17,52,6.40
2017,05,22,17,53,6.40
2017,05,22,17,54,3.20
2017,05,22,17,55,6.40
2017,05,22,17,56,6.40
2017,05,22,17,57,8.10
2017,05,22,17,58,4.80
2017,05,22,17,59,6.40
2017,05,22,18,00,4.80
2017,05,22,18,01,4.80
2017,05,22,18,02,4.80
2017,05,22,18,03,4.80
2017,05,22,18,04,4.80
2017,05,22,18,05,3.20
2017,05,22,18,06,3.20
2017,05,22,18,07,1.60
2017,05,22,18,08,1.60
2017,05,22,18,09,1.60
2017,05,22,18,10,3.20
2017,05,22,18,11,3.20
2017,05,22,18,12,3.20
2017,05,22,18,13,3.20
2017,05,22,18,14,1.60
2017,05,22,18,15,3.20
2017,05,22,18,16,1.60
2017,05,22,18,17,1.60
2017,05,22,18,18,3.20
2017,05,22,18,19,3.20
2017,05,22,18,20,3.20
2017,05,22,18,21,3.20
2017,05,22,18,22,3.20
2017,05,22,18,23,4.80
2017,05,22,18,24,1.60
2017,05,22,18,25,3.20
2017,05,22,18,26,1.60
2017,05,22,18,27,1.60
2017,05,22,18,28,1.60
2017,05,22,18,29,3.20
2017,05,22,18,30,1.60
2017,05,22,18,31,1.60
2017,05,22,18,32,3.20
2017,05,22,18,33,1.60
2017,05,22,18,34,1.60
2017,05,22,18,35,1.60
2017,05,22,18,36,1.60
2017,05,22,18,38,1.60
2017,05,22,18,39,4.80
2017,05,22,18,40,4.80
2017,05,22,18,41,6.40
2017,05,22,18,42,3.20
2017,05,22,18,43,4.80
2017,05,22,18,44,4.80
2017,05,22,18,45,4.80
2017,05,22,18,46,8.10
2017,05,22,18,47,6.40
2017,05,22,18,48,8.10
2017,05,22,18,49,8.10
2017,05,22,18,50,9.60
2017,05,22,18,51,9.60
2017,05,22,18,52,9.60
2017,05,22,18,53,11.30
2017,05,22,18,54,11.30
2017,05,22,18,55,8.10
2017,05,22,18,56,6.40
2017,05,22,18,57,4.80
2017,05,22,18,58,4.80
2017,05,22,18,59,12.90
2017,05,22,19,00,11.30
2017,05,22,19,01,8.10
2017,05,22,19,02,14.50
2017,05,22,19,03,9.60
2017,05,22,19,04,6.40
2017,05,22,19,05,8.10
2017,05,22,19,06,8.10
2017,05,22,19,07,4.80
2017,05,22,19,08,4.80
2017,05,22,19,09,8.10
2017,05,22,19,10,4.80
2017,05,22,19,11,8.10
2017,05,22,19,12,9.60
2017,05,22,19,13,8.10
2017,05,22,19,14,8.10
2017,05,22,19,15,4.80
2017,05,22,19,16,3.20
2017,05,22,19,17,8.10
2017,05,22,19,18,8.10
2017,05,22,19,19,4.80
2017,05,22,19,20,4.80
2017,05,22,19,21,4.80
2017,05,22,19,22,6.40
2017,05,22,19,23,8.10
2017,05,22,19,24,9.60
2017,05,22,19,25,4.80
2017,05,22,19,26,8.10
2017,05,22,19,27,11.30
2017,05,22,19,28,6.40
2017,05,22,19,29,9.60
2017,05,22,19,30,4.80
2017,05,22,19,31,4.80
2017,05,22,19,32,4.80
2017,05,22,19,33,4.80
2017,05,22,19,34,4.80
2017,05,22,19,35,8.10
2017,05,22,19,36,11.30
2017,05,22,19,37,6.40
2017,05,22,19,38,6.40
2017,05,22,19,39,6.40
2017,05,22,19,40,8.10
2017,05,22,19,41,14.50
2017,05,22,19,42,9.60
2017,05,22,19,43,8.10
2017,05,22,19,44,6.40
2017,05,22,19,45,8.10
2017,05,22,19,46,8.10
2017,05,22,19,47,9.60
2017,05,22,19,48,8.10
2017,05,22,19,49,8.10
2017,05,22,19,50,9.60
2017,05,22,19,51,11.30
2017,05,22,19,52,9.60
2017,05,22,19,53,8.10
2017,05,22,19,54,11.30
2017,05,22,19,55,14.50
2017,05,22,19,56,9.60
2017,05,22,19,57,9.60
2017,05,22,19,58,11.30
2017,05,22,19,59,9.60
2017,05,22,20,00,14.50
2017,05,22,20,01,8.10
2017,05,22,20,02,8.10
2017,05,22,20,03,16.10
2017,05,22,20,04,14.50
2017,05,22,20,05,11.30
2017,05,22,20,06,8.10
2017,05,22,20,07,9.60
2017,05,22,20,08,12.90
2017,05,22,20,09,12.90
2017,05,22,20,10,11.30
2017,05,22,20,11,11.30
2017,05,22,20,12,9.60
2017,05,22,20,13,11.30
2017,05,22,20,14,14.50
2017,05,22,20,15,14.50
2017,05,22,20,16,16.10
2017,05,22,20,17,16.10
2017,05,22,20,18,14.50
2017,05,22,20,19,14.50
2017,05,22,20,20,9.60
2017,05,22,20,21,9.60
2017,05,22,20,22,6.40
2017,05,22,20,23,14.50
2017,05,22,20,24,8.10
2017,05,22,20,25,16.10
2017,05,22,20,26,9.60
2017,05,22,20,27,8.10
2017,05,22,20,28,14.50
2017,05,22,20,29,9.60
2017,05,22,20,30,9.60
2017,05,22,20,31,11.30
2017,05,22,20,32,9.60
2017,05,22,20,33,9.60
2017,05,22,20,34,11.30
2017,05,22,20,35,11.30
2017,05,22,20,36,11.30
2017,05,22,20,37,8.10
2017,05,22,20,38,11.30
2017,05,22,20,39,11.30
2017,05,22,20,40,11.30
2017,05,22,20,41,9.60
2017,05,22,20,42,11.30
2017,05,22,20,43,14.50
2017,05,22,20,44,14.50
2017,05,22,20,45,11.30
2017,05,22,20,46,16.10
2017,05,22,20,47,11.30
2017,05,22,20,48,14.50
2017,05,22,20,49,11.30
2017,05,22,20,50,9.60
2017,05,22,20,51,8.10
2017,05,22,20,52,6.40
2017,05,22,20,53,8.10
2017,05,22,20,54,9.60
2017,05,22,20,55,9.60
2017,05,22,20,56,11.30
2017,05,22,20,57,11.30
2017,05,22,20,58,9.60
2017,05,22,20,59,8.10
2017,05,22,21,00,4.80
2017,05,22,21,01,8.10